START_TIME,STEP,MOV.,AL01,t_acc.,AL02,t_acc.,E37,t_acc.,H21,t_acc.
1981-08-29 15:00:34.910 ,3,0,0.,24.0,0.,24.0,0.,24.0,0.,24.0
1981-08-29 15:00:58.910 ,4,1,0.,24.0,0.,24.0,0.,24.0,0.,24.0
1981-08-29 15:01:22.910 ,4,0,0.,24.0,0.,24.0,0.,24.0,0.,24.0
1981-08-29 15:01:46.910 ,5,1,0.,24.0,0.,24.0,0.,24.0,0.,24.0
1981-08-29 15:02:10.910 ,5,0,0.,24.0,0.,24.0,0.,24.0,0.,24.0
1981-08-29 15:02:34.910 ,6,1,0.,24.0,0.,24.0,0.,24.0,0.,24.0
1981-08-29 15:02:58.910 ,6,0,0.,24.0,0.,24.0,1.,24.0,0.,24.0
1981-08-29 15:03:22.910 ,7,1,9.,24.0,0.,24.0,0.,24.0,0.,24.0
1981-08-29 15:03:46.910 ,7,0,27.,24.0,0.,24.0,0.,24.0,0.,24.0
1981-08-29 15:04:10.910 ,7,1,35.,24.0,0.,24.0,1.,24.0,0.,24.0
1981-08-29 15:04:34.910 ,6,1,24.,24.0,0.,24.0,1.,24.0,0.,24.0
1981-08-29 15:04:58.910 ,5,1,0.,24.0,0.,24.0,1.,24.0,0.,24.0
1981-08-29 15:05:22.910 ,4,1,0.,24.0,0.,24.0,0.,24.0,0.,24.0
1981-08-29 15:05:46.910 ,3,1,0.,24.0,0.,24.0,0.,24.0,0.,24.0
1981-08-29 15:06:10.910 ,2,1,0.,24.0,0.,24.0,0.,24.0,0.,24.0
1981-08-29 15:06:34.910 ,1,1,0.,24.0,0.,24.0,0.,24.0,0.,24.0
1981-08-29 15:06:58.910 ,0,1,0.,24.0,0.,24.0,0.,24.0,0.,24.0
1981-08-29 15:07:22.910 ,0,1,0.,24.0,0.,24.0,0.,24.0,0.,24.0
1981-08-29 15:07:46.910 ,1,1,0.,24.0,0.,24.0,1.,24.0,0.,24.0
1981-08-29 15:08:10.910 ,2,1,0.,24.0,0.,24.0,0.,24.0,0.,24.0
1981-08-29 15:08:34.910 ,3,1,0.,24.0,0.,24.0,1.,24.0,0.,24.0
1981-08-29 15:08:58.910 ,4,1,0.,24.0,0.,24.0,0.,24.0,0.,24.0
1981-08-29 15:09:22.910 ,5,1,0.,24.0,0.,24.0,0.,24.0,0.,24.0
1981-08-29 15:09:46.910 ,6,1,0.,24.0,0.,24.0,1.,24.0,0.,24.0
1981-08-29 15:10:10.910 ,7,1,4.,24.0,0.,24.0,1.,24.0,0.,24.0
1981-08-29 15:10:34.910 ,7,1,31.,24.0,0.,24.0,0.,24.0,0.,24.0
1981-08-29 15:10:58.910 ,7,0,31.,24.0,0.,24.0,1.,24.0,0.,24.0
1981-08-29 15:11:22.910 ,6,1,31.,24.0,0.,24.0,0.,24.0,0.,24.0
1981-08-29 15:11:46.910 ,6,0,0.,24.0,0.,24.0,1.,24.0,0.,24.0
1981-08-29 15:12:10.910 ,5,1,0.,24.0,0.,24.0,1.,24.0,0.,24.0
1981-08-29 15:12:34.910 ,5,0,0.,24.0,0.,24.0,0.,24.0,0.,24.0
1981-08-29 15:12:58.910 ,4,1,0.,24.0,0.,24.0,1.,24.0,0.,24.0
1981-08-29 15:13:22.910 ,4,0,0.,24.0,0.,24.0,0.,24.0,0.,24.0
1981-08-29 15:13:46.910 ,3,1,0.,24.0,0.,24.0,0.,24.0,0.,24.0
1981-08-29 15:14:10.910 ,3,0,0.,24.0,0.,24.0,0.,24.0,0.,24.0
1981-08-29 15:14:34.910 ,2,1,0.,24.0,0.,24.0,0.,24.0,0.,24.0
1981-08-29 15:14:58.910 ,2,0,0.,24.0,0.,24.0,0.,24.0,0.,24.0
1981-08-29 15:15:22.910 ,1,1,0.,24.0,0.,24.0,0.,24.0,0.,24.0
1981-08-29 15:15:46.910 ,1,0,0.,24.0,0.,24.0,0.,24.0,0.,24.0
1981-08-29 15:16:10.910 ,0,1,0.,24.0,0.,24.0,0.,24.0,0.,24.0
1981-08-29 15:16:34.910 ,0,0,0.,24.0,0.,24.0,0.,24.0,0.,24.0
1981-08-29 15:16:58.910 ,0,1,0.,24.0,0.,24.0,0.,24.0,0.,24.0
1981-08-29 15:17:22.910 ,0,0,0.,24.0,0.,24.0,0.,24.0,0.,24.0
1981-08-29 15:17:46.910 ,1,1,0.,24.0,0.,24.0,0.,24.0,0.,24.0
1981-08-29 15:18:10.910 ,1,0,0.,24.0,0.,24.0,0.,24.0,0.,24.0
1981-08-29 15:18:34.910 ,2,1,0.,24.0,0.,24.0,0.,24.0,0.,24.0
1981-08-29 15:18:58.910 ,2,0,0.,24.0,0.,24.0,0.,24.0,0.,24.0
1981-08-29 15:19:22.910 ,3,1,0.,24.0,0.,24.0,0.,24.0,0.,24.0
1981-08-29 15:19:46.910 ,3,0,0.,24.0,1.,24.0,0.,24.0,0.,24.0
1981-08-29 15:20:58.910 ,0,0,0.,24.0,0.,24.0,2.,24.0,0.,24.0
1981-08-29 15:21:22.910 ,0,0,0.,24.0,0.,24.0,0.,24.0,0.,24.0
1981-08-29 15:21:22.910 ,0,0,0.,24.0,0.,24.0,0.,24.0,0.,24.0
1981-08-29 15:21:46.910 ,6,1,0.,24.0,0.,24.0,0.,24.0,0.,24.0
1981-08-29 15:22:10.910 ,6,0,0.,24.0,0.,24.0,0.,24.0,0.,24.0
1981-08-29 15:22:34.910 ,7,1,5.,24.0,0.,24.0,0.,24.0,0.,24.0
1981-08-29 15:22:58.910 ,7,0,26.,24.0,0.,24.0,1.,24.0,0.,24.0
1981-08-29 15:23:22.910 ,7,1,29.,24.0,0.,24.0,1.,24.0,0.,24.0
1981-08-29 15:23:46.910 ,6,1,25.,24.0,0.,24.0,0.,24.0,0.,24.0
1981-08-29 15:24:10.910 ,5,1,0.,24.0,0.,24.0,1.,24.0,0.,24.0
1981-08-29 15:24:34.910 ,4,1,0.,24.0,0.,24.0,0.,24.0,0.,24.0
1981-08-29 15:24:58.910 ,3,1,0.,24.0,0.,24.0,0.,24.0,0.,24.0
1981-08-29 15:25:22.910 ,2,1,0.,24.0,0.,24.0,0.,24.0,0.,24.0
1981-08-29 15:25:46.910 ,1,1,0.,24.0,0.,24.0,0.,24.0,0.,24.0
1981-08-29 15:26:10.910 ,0,1,0.,24.0,0.,24.0,1.,24.0,0.,24.0
1981-08-29 15:26:34.910 ,0,1,0.,24.0,0.,24.0,0.,24.0,0.,24.0
1981-08-29 15:26:58.910 ,1,1,0.,24.0,0.,24.0,0.,24.0,0.,24.0
1981-08-29 15:27:22.910 ,2,1,0.,24.0,0.,24.0,0.,24.0,0.,24.0
1981-08-29 15:27:46.910 ,3,1,0.,24.0,0.,24.0,0.,24.0,0.,24.0
1981-08-29 15:28:10.910 ,4,1,0.,24.0,0.,24.0,0.,24.0,0.,24.0
1981-08-29 15:28:34.910 ,5,1,0.,24.0,1.,24.0,1.,24.0,0.,24.0
1981-08-29 15:28:58.910 ,6,1,0.,24.0,0.,24.0,0.,24.0,0.,24.0
1981-08-29 15:29:22.910 ,7,1,10.,24.0,0.,24.0,0.,24.0,0.,24.0
1981-08-29 15:29:46.910 ,7,1,40.,24.0,0.,24.0,0.,24.0,0.,24.0
1981-08-29 15:30:10.910 ,7,0,23.,24.0,0.,24.0,0.,24.0,0.,24.0
1981-08-29 15:30:34.910 ,6,1,24.,24.0,0.,24.0,0.,24.0,0.,24.0
1981-08-29 15:30:58.910 ,6,0,0.,24.0,0.,24.0,0.,24.0,0.,24.0
1981-08-29 15:31:22.910 ,5,1,0.,24.0,0.,24.0,0.,24.0,0.,24.0
1981-08-29 15:31:46.910 ,5,0,0.,24.0,0.,24.0,0.,24.0,0.,24.0
1981-08-29 15:32:10.910 ,4,1,0.,24.0,0.,24.0,0.,24.0,0.,24.0
1981-08-29 15:32:34.910 ,4,0,0.,24.0,0.,24.0,1.,24.0,0.,24.0
1981-08-29 15:32:58.910 ,3,1,0.,24.0,0.,24.0,1.,24.0,0.,24.0
1981-08-29 15:33:22.910 ,3,0,0.,24.0,1.,24.0,0.,24.0,0.,24.0
1981-08-29 15:33:46.910 ,2,1,0.,24.0,0.,24.0,0.,24.0,0.,24.0
1981-08-29 15:34:10.910 ,2,0,0.,24.0,0.,24.0,0.,24.0,0.,24.0
1981-08-29 15:34:34.910 ,1,1,0.,24.0,0.,24.0,1.,24.0,0.,24.0
1981-08-29 15:34:58.910 ,1,0,0.,24.0,1.,24.0,1.,24.0,0.,24.0
1981-08-29 15:35:22.910 ,0,1,0.,24.0,0.,24.0,0.,24.0,0.,24.0
1981-08-29 15:35:46.910 ,0,0,0.,24.0,0.,24.0,0.,24.0,0.,24.0
1981-08-29 15:36:10.910 ,0,1,0.,24.0,0.,24.0,0.,24.0,0.,24.0
1981-08-29 15:36:34.910 ,0,0,0.,24.0,0.,24.0,1.,24.0,0.,24.0
1981-08-29 15:36:58.910 ,1,1,0.,24.0,0.,24.0,1.,24.0,0.,24.0
1981-08-29 15:37:22.910 ,1,0,0.,24.0,0.,24.0,0.,24.0,0.,24.0
1981-08-29 15:37:46.910 ,2,1,0.,24.0,0.,24.0,0.,24.0,0.,24.0
1981-08-29 15:38:10.910 ,2,0,0.,24.0,0.,24.0,0.,24.0,0.,24.0
1981-08-29 15:38:34.910 ,3,1,0.,24.0,0.,24.0,0.,24.0,0.,24.0
1981-08-29 15:38:58.910 ,3,0,0.,24.0,0.,24.0,0.,24.0,0.,24.0
1981-08-29 15:39:22.910 ,4,1,0.,24.0,0.,24.0,1.,24.0,0.,24.0
1981-08-29 15:39:46.910 ,4,0,0.,24.0,0.,24.0,0.,24.0,0.,24.0
1981-08-29 15:40:10.910 ,5,1,0.,24.0,0.,24.0,0.,24.0,0.,24.0
1981-08-29 15:40:34.910 ,5,0,0.,24.0,0.,24.0,0.,24.0,0.,24.0
1981-08-29 15:40:58.910 ,6,1,0.,24.0,1.,24.0,0.,24.0,0.,24.0
1981-08-29 15:41:22.910 ,6,0,0.,24.0,0.,24.0,0.,24.0,0.,24.0
1981-08-29 15:41:46.910 ,7,1,9.,24.0,0.,24.0,0.,24.0,0.,24.0
1981-08-29 15:42:10.910 ,7,0,28.,24.0,0.,24.0,1.,24.0,0.,24.0
1981-08-29 15:42:34.910 ,7,1,34.,24.0,0.,24.0,1.,24.0,0.,24.0
1981-08-29 15:42:58.910 ,0,0,24.,24.0,0.,24.0,1.,24.0,0.,24.0
1981-08-29 15:46:49.910 ,0,0,,0,,0,,0,,0
1981-08-29 15:46:58.910 ,3,1,0.,24.0,0.,24.0,0.,24.0,0.,24.0
1981-08-29 15:47:22.910 ,4,1,0.,24.0,0.,24.0,1.,24.0,0.,24.0
1981-08-29 15:47:46.910 ,5,1,0.,24.0,0.,24.0,0.,24.0,0.,24.0
1981-08-29 15:48:10.910 ,6,1,0.,24.0,0.,24.0,0.,24.0,0.,24.0
1981-08-29 15:48:34.910 ,7,1,7.,24.0,0.,24.0,0.,24.0,0.,24.0
1981-08-29 15:48:58.910 ,7,1,34.,24.0,0.,24.0,0.,24.0,0.,24.0
1981-08-29 15:49:22.910 ,7,0,20.,24.0,0.,24.0,1.,24.0,0.,24.0
1981-08-29 15:49:46.910 ,6,1,17.,24.0,0.,24.0,0.,24.0,0.,24.0
1981-08-29 15:50:10.910 ,6,0,0.,24.0,0.,24.0,0.,24.0,0.,24.0
1981-08-29 15:50:34.910 ,5,1,0.,24.0,0.,24.0,0.,24.0,0.,24.0
1981-08-29 15:50:58.910 ,5,0,0.,24.0,0.,24.0,0.,24.0,0.,24.0
1981-08-29 15:51:22.910 ,4,1,0.,24.0,0.,24.0,0.,24.0,0.,24.0
1981-08-29 15:51:46.910 ,4,0,0.,24.0,0.,24.0,0.,24.0,0.,24.0
1981-08-29 15:52:10.910 ,3,1,0.,24.0,0.,24.0,1.,24.0,0.,24.0
1981-08-29 15:52:34.910 ,3,0,0.,24.0,0.,24.0,1.,24.0,0.,24.0
1981-08-29 15:52:58.910 ,2,1,0.,24.0,0.,24.0,0.,24.0,0.,24.0
1981-08-29 15:53:22.910 ,2,0,0.,24.0,0.,24.0,0.,24.0,0.,24.0
1981-08-29 15:53:46.910 ,1,1,0.,24.0,0.,24.0,0.,24.0,0.,24.0
1981-08-29 15:54:10.910 ,1,0,0.,24.0,0.,24.0,0.,24.0,0.,24.0
1981-08-29 15:54:34.910 ,0,1,0.,24.0,0.,24.0,0.,24.0,0.,24.0
1981-08-29 15:54:58.910 ,0,0,0.,24.0,0.,24.0,0.,24.0,0.,24.0
1981-08-29 15:55:22.910 ,0,1,0.,24.0,0.,24.0,2.,24.0,0.,24.0
1981-08-29 15:55:46.910 ,0,0,0.,24.0,0.,24.0,1.,24.0,0.,24.0
1981-08-29 15:56:10.910 ,1,1,0.,24.0,0.,24.0,0.,24.0,0.,24.0
1981-08-29 15:56:34.910 ,1,0,0.,24.0,0.,24.0,1.,24.0,0.,24.0
1981-08-29 15:56:58.910 ,2,1,0.,24.0,0.,24.0,0.,24.0,0.,24.0
1981-08-29 15:57:22.910 ,2,0,0.,24.0,0.,24.0,1.,24.0,0.,24.0
1981-08-29 15:57:46.910 ,3,1,0.,24.0,0.,24.0,0.,24.0,0.,24.0
1981-08-29 15:58:10.910 ,3,0,0.,24.0,0.,24.0,0.,24.0,0.,24.0
1981-08-29 15:58:34.910 ,4,1,0.,24.0,0.,24.0,0.,24.0,0.,24.0
1981-08-29 15:58:58.910 ,4,0,0.,24.0,0.,24.0,0.,24.0,0.,24.0
1981-08-29 15:59:22.910 ,5,1,0.,24.0,0.,24.0,0.,24.0,0.,24.0
1981-08-29 15:59:46.910 ,5,0,0.,24.0,0.,24.0,0.,24.0,0.,24.0
1981-08-29 16:00:10.910 ,6,1,0.,24.0,0.,24.0,0.,24.0,0.,24.0
1981-08-29 16:00:34.910 ,6,0,0.,24.0,0.,24.0,1.,24.0,0.,24.0
1981-08-29 16:00:58.910 ,7,1,5.,24.0,0.,24.0,0.,24.0,0.,24.0
1981-08-29 16:01:22.910 ,7,0,24.,24.0,0.,24.0,1.,24.0,0.,24.0
1981-08-29 16:01:46.910 ,7,1,28.,24.0,0.,24.0,1.,24.0,0.,24.0
1981-08-29 16:02:10.910 ,6,1,18.,24.0,0.,24.0,0.,24.0,0.,24.0
1981-08-29 16:02:34.910 ,5,1,0.,24.0,0.,24.0,0.,24.0,0.,24.0
1981-08-29 16:02:58.910 ,4,1,0.,24.0,0.,24.0,0.,24.0,0.,24.0
1981-08-29 16:03:22.910 ,3,1,0.,24.0,0.,24.0,0.,24.0,0.,24.0
1981-08-29 16:03:46.910 ,2,1,0.,24.0,0.,24.0,1.,24.0,0.,24.0
1981-08-29 16:04:10.910 ,1,1,0.,24.0,0.,24.0,1.,24.0,0.,24.0
1981-08-29 16:04:34.910 ,0,1,0.,24.0,0.,24.0,0.,24.0,0.,24.0
1981-08-29 16:04:58.910 ,0,1,0.,24.0,0.,24.0,0.,24.0,0.,24.0
1981-08-29 16:05:22.910 ,1,1,0.,24.0,0.,24.0,0.,24.0,0.,24.0
1981-08-29 16:05:46.910 ,2,1,1.,24.0,0.,24.0,0.,24.0,0.,24.0
1981-08-29 16:06:10.910 ,3,1,0.,24.0,0.,24.0,1.,24.0,0.,24.0
1981-08-29 16:06:34.910 ,4,1,0.,24.0,0.,24.0,1.,24.0,0.,24.0
1981-08-29 16:06:58.910 ,5,1,0.,24.0,0.,24.0,0.,24.0,0.,24.0
1981-08-29 16:07:22.910 ,6,1,0.,24.0,0.,24.0,1.,24.0,0.,24.0
1981-08-29 16:07:46.910 ,7,1,10.,24.0,0.,24.0,0.,24.0,0.,24.0
1981-08-29 16:08:10.910 ,7,1,28.,24.0,0.,24.0,0.,24.0,0.,24.0
1981-08-29 16:08:34.910 ,7,0,20.,24.0,0.,24.0,0.,24.0,0.,24.0
1981-08-29 16:08:58.910 ,6,1,21.,24.0,0.,24.0,1.,24.0,0.,24.0
1981-08-29 16:09:22.910 ,6,0,0.,24.0,0.,24.0,0.,24.0,0.,24.0
1981-08-29 16:09:46.910 ,5,1,0.,24.0,0.,24.0,0.,24.0,0.,24.0
1981-08-29 16:10:10.910 ,5,0,0.,24.0,0.,24.0,0.,24.0,0.,24.0
1981-08-29 16:10:34.910 ,4,1,0.,24.0,0.,24.0,1.,24.0,0.,24.0
1981-08-29 16:10:58.910 ,4,0,0.,24.0,0.,24.0,0.,24.0,0.,24.0
1981-08-29 16:11:22.910 ,3,1,0.,24.0,0.,24.0,0.,24.0,0.,24.0
1981-08-29 16:11:46.910 ,3,0,0.,24.0,0.,24.0,1.,24.0,0.,24.0
1981-08-29 16:12:10.910 ,2,1,0.,24.0,0.,24.0,1.,24.0,0.,24.0
1981-08-29 16:12:34.910 ,2,0,0.,24.0,0.,24.0,0.,24.0,0.,24.0
1981-08-29 16:12:58.910 ,1,1,0.,24.0,0.,24.0,0.,24.0,0.,24.0
1981-08-29 16:13:22.910 ,1,0,0.,24.0,0.,24.0,0.,24.0,0.,24.0
1981-08-29 16:13:46.910 ,0,1,0.,24.0,0.,24.0,0.,24.0,0.,24.0
1981-08-29 16:14:10.910 ,0,0,0.,24.0,0.,24.0,0.,24.0,0.,24.0
1981-08-29 16:14:34.910 ,0,1,0.,24.0,0.,24.0,1.,24.0,0.,24.0
1981-08-29 16:14:58.910 ,0,0,0.,24.0,0.,24.0,1.,24.0,0.,24.0
1981-08-29 16:15:22.910 ,1,1,0.,24.0,0.,24.0,1.,24.0,0.,24.0
1981-08-29 16:15:46.910 ,1,0,0.,24.0,0.,24.0,0.,24.0,0.,24.0
1981-08-29 16:16:10.910 ,2,1,0.,24.0,0.,24.0,1.,24.0,0.,24.0
1981-08-29 16:16:34.910 ,2,0,0.,24.0,0.,24.0,0.,24.0,0.,24.0
1981-08-29 16:16:58.910 ,3,1,0.,24.0,0.,24.0,1.,24.0,0.,24.0
1981-08-29 16:17:22.910 ,3,0,0.,24.0,0.,24.0,0.,24.0,0.,24.0
1981-08-29 16:17:46.910 ,4,1,0.,24.0,0.,24.0,0.,24.0,0.,24.0
1981-08-29 16:18:10.910 ,4,0,0.,24.0,0.,24.0,0.,24.0,0.,24.0
1981-08-29 16:18:34.910 ,5,1,0.,24.0,0.,24.0,0.,24.0,0.,24.0
1981-08-29 16:18:58.910 ,5,0,0.,24.0,0.,24.0,0.,24.0,0.,24.0
1981-08-29 16:19:22.910 ,6,1,1.,24.0,0.,24.0,0.,24.0,0.,24.0
1981-08-29 16:19:46.910 ,6,0,0.,24.0,0.,24.0,0.,24.0,0.,24.0
1981-08-29 16:20:10.910 ,7,1,12.,24.0,0.,24.0,0.,24.0,0.,24.0
1981-08-29 16:20:34.910 ,7,0,36.,24.0,1.,24.0,3.,24.0,0.,24.0
1981-08-29 16:20:58.910 ,7,1,25.,24.0,0.,24.0,0.,24.0,0.,24.0
1981-08-29 16:21:22.910 ,6,1,34.,24.0,0.,24.0,0.,24.0,0.,24.0
1981-08-29 16:21:46.910 ,5,1,0.,24.0,0.,24.0,1.,24.0,0.,24.0
1981-08-29 16:22:10.910 ,4,1,0.,24.0,0.,24.0,0.,24.0,0.,24.0
1981-08-29 16:22:34.910 ,3,1,0.,24.0,0.,24.0,1.,24.0,0.,24.0
1981-08-29 16:22:58.910 ,2,1,0.,24.0,0.,24.0,0.,24.0,0.,24.0
1981-08-29 16:23:22.910 ,1,1,0.,24.0,0.,24.0,0.,24.0,0.,24.0
1981-08-29 16:23:46.910 ,0,1,0.,24.0,0.,24.0,0.,24.0,0.,24.0
1981-08-29 16:24:10.910 ,0,1,0.,24.0,0.,24.0,0.,24.0,0.,24.0
1981-08-29 16:24:34.910 ,1,1,0.,24.0,0.,24.0,1.,24.0,0.,24.0
1981-08-29 16:24:58.910 ,2,1,0.,24.0,0.,24.0,0.,24.0,0.,24.0
1981-08-29 16:25:22.910 ,3,1,0.,24.0,0.,24.0,0.,24.0,0.,24.0
1981-08-29 16:25:46.910 ,4,1,0.,24.0,0.,24.0,0.,24.0,0.,24.0
1981-08-29 16:26:10.910 ,5,1,0.,24.0,0.,24.0,0.,24.0,0.,24.0
1981-08-29 16:26:34.910 ,6,1,0.,24.0,0.,24.0,0.,24.0,0.,24.0
1981-08-29 16:26:58.910 ,7,1,6.,24.0,0.,24.0,0.,24.0,0.,24.0
1981-08-29 16:27:22.910 ,7,1,37.,24.0,0.,24.0,0.,24.0,0.,24.0
1981-08-29 16:27:46.910 ,7,0,33.,24.0,0.,24.0,0.,24.0,0.,24.0
1981-08-29 16:28:10.910 ,6,1,29.,24.0,0.,24.0,0.,24.0,0.,24.0
1981-08-29 16:28:34.910 ,6,0,0.,24.0,0.,24.0,2.,24.0,0.,24.0
1981-08-29 16:28:58.910 ,5,1,0.,24.0,0.,24.0,0.,24.0,0.,24.0
1981-08-29 16:29:22.910 ,5,0,0.,24.0,0.,24.0,1.,24.0,0.,24.0
1981-08-29 16:29:46.910 ,4,1,0.,24.0,0.,24.0,0.,24.0,0.,24.0
1981-08-29 16:30:10.910 ,4,0,0.,24.0,0.,24.0,0.,24.0,0.,24.0
1981-08-29 16:30:34.910 ,3,1,0.,24.0,0.,24.0,0.,24.0,0.,24.0
1981-08-29 16:30:58.910 ,3,0,0.,24.0,0.,24.0,0.,24.0,0.,24.0
1981-08-29 16:31:22.910 ,2,1,0.,24.0,0.,24.0,0.,24.0,0.,24.0
1981-08-29 16:31:46.910 ,2,0,0.,24.0,0.,24.0,2.,24.0,0.,24.0
1981-08-29 16:32:10.910 ,1,1,0.,24.0,0.,24.0,0.,24.0,0.,24.0
1981-08-29 16:32:34.910 ,1,0,0.,24.0,0.,24.0,0.,24.0,0.,24.0
1981-08-29 16:32:58.910 ,0,1,0.,24.0,0.,24.0,0.,24.0,0.,24.0
1981-08-29 16:33:22.910 ,0,0,0.,24.0,0.,24.0,0.,24.0,0.,24.0
1981-08-29 16:33:46.910 ,0,1,0.,24.0,0.,24.0,0.,24.0,0.,24.0
1981-08-29 16:34:10.910 ,0,0,1.,24.0,0.,24.0,1.,24.0,0.,24.0
1981-08-29 16:34:34.910 ,1,1,0.,24.0,0.,24.0,1.,24.0,0.,24.0
1981-08-29 16:34:58.910 ,1,0,0.,24.0,0.,24.0,1.,24.0,0.,24.0
1981-08-29 16:35:22.910 ,2,1,0.,24.0,0.,24.0,0.,24.0,0.,24.0
1981-08-29 16:35:46.910 ,2,0,0.,24.0,0.,24.0,0.,24.0,0.,24.0
1981-08-29 16:36:10.910 ,3,1,0.,24.0,0.,24.0,0.,24.0,0.,24.0
1981-08-29 16:36:34.910 ,3,0,0.,24.0,0.,24.0,0.,24.0,0.,24.0
1981-08-29 16:36:58.910 ,4,1,0.,24.0,0.,24.0,1.,24.0,0.,24.0
1981-08-29 16:37:22.910 ,4,0,0.,24.0,0.,24.0,1.,24.0,0.,24.0
1981-08-29 16:37:46.910 ,5,1,0.,24.0,0.,24.0,1.,24.0,0.,24.0
1981-08-29 16:38:10.910 ,5,0,0.,24.0,0.,24.0,0.,24.0,0.,24.0
1981-08-29 16:38:34.910 ,6,1,0.,24.0,0.,24.0,0.,24.0,0.,24.0
1981-08-29 16:38:58.910 ,6,0,0.,24.0,0.,24.0,0.,24.0,0.,24.0
1981-08-29 16:39:22.910 ,7,1,4.,24.0,0.,24.0,0.,24.0,0.,24.0
1981-08-29 16:39:46.910 ,7,0,24.,24.0,0.,24.0,0.,24.0,0.,24.0
1981-08-29 16:40:10.910 ,7,1,24.,24.0,0.,24.0,0.,24.0,0.,24.0
1981-08-29 16:40:34.910 ,6,1,32.,24.0,0.,24.0,1.,24.0,0.,24.0
1981-08-29 16:40:58.910 ,5,1,1.,24.0,0.,24.0,1.,24.0,0.,24.0
1981-08-29 16:41:22.910 ,4,1,0.,24.0,0.,24.0,0.,24.0,0.,24.0
1981-08-29 16:41:46.910 ,3,1,1.,24.0,0.,24.0,0.,24.0,0.,24.0
1981-08-29 16:42:10.910 ,0,0,0.,24.0,0.,24.0,0.,24.0,0.,24.0
1981-08-29 16:53:34.300 ,0,0,0.,24.0,0.,24.0,1.,24.0,0.,24.0
1981-08-29 16:53:46.900 ,3,1,1.,24.0,0.,24.0,1.,24.0,0.,24.0
1981-08-29 16:54:10.900 ,3,0,0.,24.0,0.,24.0,0.,24.0,0.,24.0
1981-08-29 16:54:34.900 ,2,1,0.,24.0,0.,24.0,0.,24.0,0.,24.0
1981-08-29 16:54:58.900 ,2,0,0.,24.0,0.,24.0,0.,24.0,0.,24.0
1981-08-29 16:55:22.900 ,1,1,0.,24.0,0.,24.0,0.,24.0,0.,24.0
1981-08-29 16:55:46.900 ,1,0,0.,24.0,0.,24.0,0.,24.0,0.,24.0
1981-08-29 16:56:10.900 ,0,1,0.,24.0,0.,24.0,0.,24.0,0.,24.0
1981-08-29 16:56:34.900 ,0,0,0.,24.0,0.,24.0,0.,24.0,0.,24.0
1981-08-29 16:56:58.900 ,0,1,0.,24.0,0.,24.0,1.,24.0,0.,24.0
1981-08-29 16:57:22.900 ,0,0,0.,24.0,0.,24.0,0.,24.0,0.,24.0
1981-08-29 16:57:46.900 ,1,1,0.,24.0,0.,24.0,0.,24.0,0.,24.0
1981-08-29 16:58:10.900 ,1,0,0.,24.0,0.,24.0,0.,24.0,0.,24.0
1981-08-29 16:58:34.900 ,2,1,0.,24.0,0.,24.0,0.,24.0,0.,24.0
1981-08-29 16:58:58.900 ,2,0,0.,24.0,1.,24.0,0.,24.0,0.,24.0
1981-08-29 16:59:22.900 ,3,1,0.,24.0,0.,24.0,0.,24.0,0.,24.0
1981-08-29 16:59:46.900 ,4,1,0.,24.0,0.,24.0,0.,24.0,0.,24.0
1981-08-29 17:00:10.900 ,5,1,0.,24.0,0.,24.0,1.,24.0,0.,24.0
1981-08-29 17:00:34.900 ,6,1,0.,24.0,0.,24.0,0.,24.0,0.,24.0
1981-08-29 17:00:58.900 ,7,1,10.,24.0,0.,24.0,0.,24.0,0.,24.0
1981-08-29 17:01:22.900 ,7,1,28.,24.0,0.,24.0,0.,24.0,0.,24.0
1981-08-29 17:01:46.900 ,6,1,27.,24.0,0.,24.0,0.,24.0,0.,24.0
1981-08-29 17:02:10.900 ,5,1,0.,24.0,0.,24.0,0.,24.0,0.,24.0
1981-08-29 17:02:34.900 ,4,1,0.,24.0,0.,24.0,0.,24.0,0.,24.0
1981-08-29 17:02:58.900 ,3,1,0.,24.0,0.,24.0,0.,24.0,0.,24.0
1981-08-29 17:03:22.900 ,2,1,0.,24.0,0.,24.0,0.,24.0,0.,24.0
1981-08-29 17:03:46.900 ,1,1,0.,24.0,0.,24.0,0.,24.0,0.,24.0
1981-08-29 17:04:10.900 ,0,1,0.,24.0,0.,24.0,0.,24.0,0.,24.0
1981-08-29 17:04:34.900 ,0,1,0.,24.0,0.,24.0,0.,24.0,0.,24.0
1981-08-29 17:04:58.900 ,1,1,0.,24.0,0.,24.0,0.,24.0,0.,24.0
1981-08-29 17:05:22.900 ,2,1,0.,24.0,0.,24.0,0.,24.0,0.,24.0
1981-08-29 17:05:46.900 ,3,1,0.,24.0,0.,24.0,0.,24.0,0.,24.0
1981-08-29 17:06:10.900 ,3,0,0.,24.0,0.,24.0,0.,24.0,0.,24.0
1981-08-29 17:06:34.900 ,4,1,0.,24.0,0.,24.0,0.,24.0,0.,24.0
1981-08-29 17:06:58.900 ,4,0,0.,24.0,0.,24.0,0.,24.0,0.,24.0
1981-08-29 17:07:22.900 ,5,1,0.,24.0,0.,24.0,0.,24.0,0.,24.0
1981-08-29 17:07:46.900 ,5,0,0.,24.0,0.,24.0,0.,24.0,0.,24.0
1981-08-29 17:08:10.900 ,6,0,,0,,0,,0,,0
1981-08-29 17:08:34.900 ,6,0,0.,24.0,0.,24.0,1.,24.0,0.,24.0
1981-08-29 17:08:58.900 ,7,1,10.,24.0,0.,24.0,0.,24.0,0.,24.0
1981-08-29 17:09:22.900 ,7,0,28.,24.0,0.,24.0,0.,24.0,0.,24.0
1981-08-29 17:09:46.900 ,7,1,29.,24.0,0.,24.0,0.,24.0,0.,24.0
1981-08-29 17:10:10.900 ,7,0,24.,24.0,0.,24.0,0.,24.0,0.,24.0
1981-08-29 17:10:34.900 ,6,1,29.,24.0,0.,24.0,0.,24.0,0.,24.0
1981-08-29 17:10:58.900 ,6,0,0.,24.0,0.,24.0,0.,24.0,0.,24.0
1981-08-29 17:11:22.900 ,5,1,0.,24.0,0.,24.0,1.,24.0,0.,24.0
1981-08-29 17:11:46.900 ,5,0,0.,24.0,0.,24.0,0.,24.0,0.,24.0
1981-08-29 17:12:10.900 ,4,1,0.,24.0,0.,24.0,0.,24.0,0.,24.0
1981-08-29 17:12:34.900 ,4,0,0.,24.0,0.,24.0,0.,24.0,0.,24.0
1981-08-29 17:12:58.900 ,3,1,0.,24.0,0.,24.0,0.,24.0,0.,24.0
1981-08-29 17:13:22.900 ,3,0,0.,24.0,0.,24.0,0.,24.0,0.,24.0
1981-08-29 17:13:46.900 ,2,1,0.,24.0,0.,24.0,0.,24.0,0.,24.0
1981-08-29 17:14:10.900 ,2,0,0.,24.0,0.,24.0,0.,24.0,0.,24.0
1981-08-29 17:14:34.900 ,1,1,0.,24.0,0.,24.0,0.,24.0,0.,24.0
1981-08-29 17:14:58.900 ,1,0,0.,24.0,0.,24.0,0.,24.0,0.,24.0
1981-08-29 17:15:22.900 ,0,1,0.,24.0,0.,24.0,0.,24.0,0.,24.0
1981-08-29 17:15:46.900 ,0,0,0.,24.0,0.,24.0,0.,24.0,0.,24.0
1981-08-29 17:16:10.900 ,0,1,0.,24.0,0.,24.0,0.,24.0,0.,24.0
1981-08-29 17:16:34.900 ,0,0,,0,,0,,0,,0
1981-08-29 17:16:46.900 ,0,0,,0,,0,,0,,0
1981-08-29 17:16:58.900 ,1,1,0.,24.0,0.,24.0,0.,24.0,0.,24.0
1981-08-29 17:17:22.900 ,1,0,0.,24.0,0.,24.0,0.,24.0,0.,24.0
1981-08-29 17:17:46.900 ,2,1,0.,24.0,0.,24.0,0.,24.0,0.,24.0
1981-08-29 17:18:10.900 ,2,0,1.,24.0,0.,24.0,0.,24.0,0.,24.0
1981-08-29 17:18:34.900 ,3,1,0.,24.0,0.,24.0,0.,24.0,0.,24.0
1981-08-29 17:18:58.900 ,4,1,0.,24.0,0.,24.0,0.,24.0,0.,24.0
1981-08-29 17:19:22.900 ,5,1,0.,24.0,0.,24.0,0.,24.0,0.,24.0
1981-08-29 17:19:46.900 ,6,1,0.,24.0,0.,24.0,0.,24.0,0.,24.0
1981-08-29 17:20:10.900 ,7,1,4.,24.0,0.,24.0,1.,24.0,0.,24.0
1981-08-29 17:20:34.900 ,7,1,32.,24.0,0.,24.0,1.,24.0,0.,24.0
1981-08-29 17:20:58.900 ,6,1,19.,24.0,0.,24.0,0.,24.0,0.,24.0
1981-08-29 17:21:22.900 ,5,1,0.,24.0,0.,24.0,1.,24.0,0.,24.0
1981-08-29 17:21:46.900 ,4,1,0.,24.0,0.,24.0,1.,24.0,0.,24.0
1981-08-29 17:22:10.900 ,3,1,0.,24.0,0.,24.0,0.,24.0,0.,24.0
1981-08-29 17:22:34.900 ,2,1,0.,24.0,0.,24.0,0.,24.0,0.,24.0
1981-08-29 17:22:58.900 ,1,1,0.,24.0,0.,24.0,0.,24.0,0.,24.0
1981-08-29 17:23:22.900 ,0,1,0.,24.0,0.,24.0,0.,24.0,0.,24.0
1981-08-29 17:23:46.900 ,0,1,0.,24.0,0.,24.0,0.,24.0,0.,24.0
1981-08-29 17:24:10.900 ,1,1,0.,24.0,0.,24.0,0.,24.0,0.,24.0
1981-08-29 17:24:34.900 ,2,1,0.,24.0,0.,24.0,1.,24.0,0.,24.0
1981-08-29 17:24:58.900 ,3,1,0.,24.0,0.,24.0,1.,24.0,0.,24.0
1981-08-29 17:25:22.900 ,3,0,0.,24.0,0.,24.0,0.,24.0,0.,24.0
1981-08-29 17:25:46.900 ,4,1,0.,24.0,0.,24.0,0.,24.0,0.,24.0
1981-08-29 17:26:10.900 ,4,0,0.,24.0,0.,24.0,0.,24.0,0.,24.0
1981-08-29 17:26:34.900 ,5,1,0.,24.0,0.,24.0,1.,24.0,0.,24.0
1981-08-29 17:26:58.900 ,5,0,0.,24.0,0.,24.0,0.,24.0,0.,24.0
1981-08-29 17:27:22.900 ,6,1,0.,24.0,0.,24.0,0.,24.0,0.,24.0
1981-08-29 17:27:46.900 ,6,0,0.,24.0,0.,24.0,0.,24.0,0.,24.0
1981-08-29 17:28:10.900 ,7,1,6.,24.0,0.,24.0,0.,24.0,0.,24.0
1981-08-29 17:28:34.900 ,7,0,25.,24.0,0.,24.0,0.,24.0,0.,24.0
1981-08-29 17:28:58.900 ,7,1,27.,24.0,0.,24.0,1.,24.0,0.,24.0
1981-08-29 17:29:22.900 ,7,0,33.,24.0,0.,24.0,0.,24.0,0.,24.0
1981-08-29 17:29:46.900 ,6,1,25.,24.0,1.,24.0,0.,24.0,0.,24.0
1981-08-29 17:30:10.900 ,6,0,0.,24.0,0.,24.0,0.,24.0,0.,24.0
1981-08-29 17:30:34.900 ,5,1,0.,24.0,0.,24.0,0.,24.0,0.,24.0
1981-08-29 17:30:58.900 ,5,0,0.,24.0,0.,24.0,0.,24.0,0.,24.0
1981-08-29 17:31:22.900 ,4,1,0.,24.0,0.,24.0,0.,24.0,0.,24.0
1981-08-29 17:31:46.900 ,4,0,0.,24.0,0.,24.0,0.,24.0,0.,24.0
1981-08-29 17:32:10.900 ,3,1,0.,24.0,0.,24.0,0.,24.0,0.,24.0
1981-08-29 17:32:34.900 ,3,0,0.,24.0,0.,24.0,0.,24.0,0.,24.0
1981-08-29 17:32:58.900 ,2,1,0.,24.0,0.,24.0,0.,24.0,0.,24.0
1981-08-29 17:33:22.900 ,2,0,1.,24.0,0.,24.0,1.,24.0,0.,24.0
1981-08-29 17:33:46.900 ,1,1,0.,24.0,0.,24.0,0.,24.0,0.,24.0
1981-08-29 17:34:10.900 ,1,0,0.,24.0,0.,24.0,0.,24.0,0.,24.0
1981-08-29 17:34:34.900 ,0,1,0.,24.0,0.,24.0,0.,24.0,0.,24.0
1981-08-29 17:34:58.900 ,0,0,0.,24.0,0.,24.0,0.,24.0,0.,24.0
1981-08-29 17:35:22.900 ,0,1,0.,24.0,0.,24.0,0.,24.0,0.,24.0
1981-08-29 17:35:46.900 ,0,0,0.,24.0,0.,24.0,0.,24.0,0.,24.0
1981-08-29 17:36:10.900 ,1,1,0.,24.0,0.,24.0,1.,24.0,0.,24.0
1981-08-29 17:36:34.900 ,1,0,0.,24.0,0.,24.0,0.,24.0,0.,24.0
1981-08-29 17:36:58.900 ,2,1,0.,24.0,0.,24.0,0.,24.0,0.,24.0
1981-08-29 17:37:22.900 ,2,0,0.,24.0,0.,24.0,1.,24.0,0.,24.0
1981-08-29 17:37:46.900 ,3,1,0.,24.0,0.,24.0,0.,24.0,0.,24.0
1981-08-29 17:38:10.900 ,4,1,0.,24.0,0.,24.0,1.,24.0,0.,24.0
1981-08-29 17:38:34.900 ,5,1,0.,24.0,0.,24.0,1.,24.0,0.,24.0
1981-08-29 17:38:58.900 ,0,0,0.,24.0,0.,24.0,1.,24.0,0.,24.0
1981-08-29 17:39:50.500 ,0,0,40.,24.0,0.,24.0,0.,24.0,0.,24.0
1981-08-29 17:40:10.900 ,6,1,22.,24.0,0.,24.0,0.,24.0,0.,24.0
1981-08-29 17:40:34.900 ,5,1,0.,24.0,0.,24.0,0.,24.0,0.,24.0
1981-08-29 17:40:58.900 ,4,1,0.,24.0,0.,24.0,0.,24.0,0.,24.0
1981-08-29 17:41:22.900 ,3,1,0.,24.0,0.,24.0,1.,24.0,0.,24.0
1981-08-29 17:41:46.900 ,2,1,0.,24.0,0.,24.0,1.,24.0,0.,24.0
1981-08-29 17:42:10.900 ,1,1,0.,24.0,0.,24.0,0.,24.0,0.,24.0
1981-08-29 17:42:34.900 ,0,1,0.,24.0,0.,24.0,0.,24.0,0.,24.0
1981-08-29 17:42:58.900 ,0,1,0.,24.0,0.,24.0,0.,24.0,0.,24.0
1981-08-29 17:43:22.900 ,1,1,0.,24.0,0.,24.0,0.,24.0,0.,24.0
1981-08-29 17:43:46.900 ,2,1,0.,24.0,0.,24.0,1.,24.0,0.,24.0
1981-08-29 17:44:10.900 ,3,1,0.,24.0,0.,24.0,1.,24.0,0.,24.0
1981-08-29 17:44:34.900 ,3,0,0.,24.0,0.,24.0,0.,24.0,0.,24.0
1981-08-29 17:44:58.900 ,4,1,0.,24.0,0.,24.0,0.,24.0,0.,24.0
1981-08-29 17:45:22.900 ,4,0,0.,24.0,0.,24.0,0.,24.0,0.,24.0
1981-08-29 17:45:46.900 ,5,1,0.,24.0,0.,24.0,0.,24.0,0.,24.0
1981-08-29 17:46:10.900 ,5,0,0.,24.0,0.,24.0,0.,24.0,0.,24.0
1981-08-29 17:46:34.900 ,6,1,0.,24.0,0.,24.0,0.,24.0,0.,24.0
1981-08-29 17:46:58.900 ,6,0,0.,24.0,0.,24.0,0.,24.0,0.,24.0
1981-08-29 17:47:22.900 ,7,1,4.,24.0,0.,24.0,0.,24.0,0.,24.0
1981-08-29 17:47:46.900 ,7,0,35.,24.0,0.,24.0,0.,24.0,0.,24.0
1981-08-29 17:48:10.900 ,7,1,42.,24.0,0.,24.0,0.,24.0,0.,24.0
1981-08-29 17:48:34.900 ,7,0,31.,24.0,0.,24.0,0.,24.0,0.,24.0
1981-08-29 17:48:58.900 ,6,1,25.,24.0,0.,24.0,0.,24.0,0.,24.0